Showing default

LEMUR 2 LANGER2SPACE, 63358

Orbit data source: Space-Track

LEMUR 2 LANGER2SPACE, 63358 is a payload satellite owned by OroraTech (US) in SSO that was launched on Wed, 26 Mar 2025 UTC via an ELECTRON launch vehicle from the Rocket Lab Launch Complex (RLLC). Payload-class satellites include a variety of spacecraft equipped with specific instruments for various scientific and technological missions. These include communications satellites like Starlink; space stations such as the ISS; scientific satellites like the Hubble; Earth observation satellites from companies like Planet Labs, Umbra, and HawkEye 360; GPS; miniature CubeSats for education and research; and military/defense satellites.

Loading next visibility...
Identifier
63358, 2025-061H
Orbit
SSO
Country
Flag of USUS
Related business
Manufacturer
Spire/Glasgow
Mission
Operational Commercial Imaging
Bus & Motor
CUBESAT 6U, Unknown motor
Mass
~15 kg wet, ~15 kg dry
Launch date (UTC)
2025-03-26 (7 months ago)
Launch vehicle
ELECTRON
Launch site
Rocket Lab Launch Complex (RLLC)
Object type
Payload
Rocket body
Debris
Shape & HBR
Box + 2 Pan, 14.5 m
Radar Cross Section
0.065 m², Medium (>0.1 m² and < 1m²)

Expand to show TLE details & history
Last TLE update: 10 hours ago

TLE from 10 hours ago
0 LEMUR 2 LANGER2SPACE
1 63358U 25061H   25309.90986940  .00005484  00000-0  32277-3 0  9998
2 63358  97.5372 282.7601 0016113 313.2593  46.7291 15.11941354 33856
Epoch: 2025-11-05T21:50Z
TLE epoch observation values (Epoch: 2025-11-05T21:50:12.716Z)
Latitude
-0.00009°
Longitude
-90.16864°
Altitude
525.733 km
Speed
7.604 km/s
True Right ascension
18h 51m 02s
True Declination
0° 00' 00"
Sunlit
Object was in daylight at epoch
Visualization orbit readout
Latitude
Unknown
Longitude
Unknown
Altitude
Unknown
Speed
Unknown
Apparent Right ascension
Unknown
Apparent Declination
Unknown
Sunlit
N/A
Visualization observer readout
Local Sidereal Time
04:01:11
Azimuth
Unknown
Elevation
Unknown
Doppler factor
Unknown
Orbital elements
Apogee altitude
538.389 km
Perigee altitude
516.136 km
Semi-major axis
6,905.399 km
Eccentricity
0.00161
Inclination
97.5372°
RAAN
282.7601°
Arg. of periapsis
313.2593°
True anomaly
46.86373°
Mean anomaly
46.7291°
Eccentric anomaly
46.79639°
Mean motion
3.78233 °/min
Orbital period
95.18 mins
BSTAR
0.00032277
Loading maneuver chart data...
Computing Atmospheric mass density...
Loading historical data...
Loading historical data...
Loading historical data...
Loading historical data...
Loading historical data...
Loading historical data...
Loading historical data...

Documentation

Showing up to 5 results
|